GW0614 Weather Reports


Display with metric or nautical units.
time (UTC)temp
F
wind
direction
speed
MPH
gust
MPH
rain 1hr
in
rain 24hr
in
rain mn
in
humidity
%
barometer
mb
20260505152823 78 123 1.0 2.0 0.00 0.00 0.00 49 1011.1
20260505152320 78 139 2.0 2.0 0.00 0.00 0.00 50 1011.2
20260505151819 78 198 4.0 6.0 0.00 0.00 0.00 49 1011.4
20260505151317 78 53 1.0 2.0 0.00 0.00 0.00 51 1011.2
20260505150814 77 13 0.0 0.0 0.00 0.00 0.00 50 1011.2
20260505150311 77 182 4.0 5.0 0.00 0.00 0.00 50 1011.4
20260505140235 72 117 3.0 3.0 0.00 0.00 0.00 54 1012.1
20260505130159 67 168 3.0 5.0 0.00 0.00 0.00 60 1012.3
20260505124649 66 217 2.0 2.0 0.00 0.00 0.00 61 1012.6
20260505124145 66 193 2.0 3.0 0.00 0.00 0.00 62 1012.5
20260505123641 65 196 5.0 6.0 0.00 0.00 0.00 62 1012.4
20260505123138 64 68 0.0 0.0 0.00 0.00 0.00 63 1012.3
20260505122634 63 225 2.0 5.0 0.00 0.00 0.00 64 1012.3
20260505122132 63 85 2.0 3.0 0.00 0.00 0.00 64 1012.2
20260505121628 63 206 4.0 6.0 0.00 0.00 0.00 63 1012.4
20260505121125 62 58 0.0 0.0 0.00 0.00 0.00 66 1012.5
20260505120621 62 53 0.0 0.0 0.00 0.00 0.00 65 1012.5
20260505120117 62 44 0.0 0.0 0.00 0.00 0.00 66 1012.5
20260505115612 62 58 0.0 0.0 0.00 0.00 0.00 67 1012.6
20260505115110 61 51 0.0 0.0 0.00 0.00 0.00 67 1012.6
20260505114606 61 80 0.0 0.0 0.00 0.00 0.00 65 1012.5
20260505114103 60 233 0.0 2.0 0.00 0.00 0.00 65 1012.5
20260505113559 60 205 1.0 6.0 0.00 0.00 0.00 68 1012.2
20260505113056 60 87 2.0 3.0 0.00 0.00 0.00 67 1012.3
20260505112552 59 242 3.0 6.0 0.00 0.00 0.00 67 1012.2
20260505112050 60 56 0.0 1.0 0.00 0.00 0.00 66 1012.3
20260505111544 59 211 0.0 1.0 0.00 0.00 0.00 67 1012.0
20260505111040 60 69 2.0 3.0 0.00 0.00 0.00 67 1012.1
20260505110537 59 48 0.0 0.0 0.00 0.00 0.00 67 1011.7
20260505102009 58 59 1.0 2.0 0.00 0.00 0.00 69 1012.0
20260505101508 58 63 0.0 0.0 0.00 0.00 0.00 68 1012.1
20260505101004 58 196 0.0 1.0 0.00 0.00 0.00 68 1011.8
20260505100501 58 189 0.0 1.0 0.00 0.00 0.00 67 1011.6
20260505095957 58 40 0.0 0.0 0.00 0.00 0.00 68 1011.8
20260505095454 58 45 0.0 0.0 0.00 0.00 0.00 68 1011.5
20260505094950 57 198 0.0 1.0 0.00 0.00 0.00 68 1011.4
20260505094447 57 305 0.0 0.0 0.00 0.00 0.00 69 1011.4
20260505093943 58 50 0.0 0.0 0.00 0.00 0.00 67 1011.4
20260505093440 58 69 1.0 2.0 0.00 0.00 0.00 65 1011.3
20260505092937 57 190 7.0 9.0 0.00 0.00 0.00 65 1011.5
20260505092434 57 50 0.0 0.0 0.00 0.00 0.00 67 1011.1
20260505091932 57 37 0.0 0.0 0.00 0.00 0.00 68 1011.3
20260505091429 58 87 1.0 2.0 0.00 0.00 0.00 66 1011.2
20260505090927 57 69 0.0 0.0 0.00 0.00 0.00 68 1011.2
20260505090425 57 69 0.0 0.0 0.00 0.00 0.00 68 1011.1
20260505085922 58 63 0.0 0.0 0.00 0.00 0.00 67 1011.3
20260505085420 58 37 0.0 0.0 0.00 0.00 0.00 65 1011.4
20260505084918 58 56 1.0 1.0 0.00 0.00 0.00 63 1011.4
20260505084416 58 233 1.0 2.0 0.00 0.00 0.00 66 1011.4
20260505083914 58 210 1.0 5.0 0.00 0.00 0.00 63 1011.6
20260505083411 59 28 0.0 0.0 0.00 0.00 0.00 64 1011.8
20260505082907 58 59 0.0 1.0 0.00 0.00 0.00 65 1011.4
20260505082403 58 67 0.0 0.0 0.00 0.00 0.00 65 1011.7
20260505081900 58 63 0.0 0.0 0.00 0.00 0.00 64 1011.8
20260505081357 58 46 0.0 0.0 0.00 0.00 0.00 65 1011.6
20260505080853 59 50 0.0 0.0 0.00 0.00 0.00 65 1011.9
20260505080349 58 60 0.0 0.0 0.00 0.00 0.00 65 1011.7
20260505075845 58 64 0.0 0.0 0.00 0.00 0.00 64 1011.7
20260505075342 58 125 0.0 0.0 0.00 0.00 0.00 66 1011.8
20260505074839 59 20 0.0 0.0 0.00 0.00 0.00 64 1011.9
20260505074337 58 312 1.0 2.0 0.00 0.00 0.00 64 1011.6
20260505073834 58 54 4.0 6.0 0.00 0.00 0.00 64 1011.8
20260505073332 57 199 0.0 0.0 0.00 0.00 0.00 65 1011.7
20260505072828 58 51 0.0 0.0 0.00 0.00 0.00 66 1011.9
20260505072324 57 44 0.0 0.0 0.00 0.00 0.00 66 1011.9
20260505071820 57 37 0.0 0.0 0.00 0.00 0.00 67 1011.9
20260505071317 57 51 0.0 0.0 0.00 0.00 0.00 65 1011.8
20260505070816 57 43 0.0 0.0 0.00 0.00 0.00 68 1011.6
20260505070312 57 53 1.0 1.0 0.00 0.00 0.00 65 1011.7
20260505065807 58 23 1.0 1.0 0.00 0.00 0.00 63 1011.8
20260505065304 58 60 0.0 0.0 0.00 0.00 0.00 63 1011.9
20260505064801 58 83 0.0 1.0 0.00 0.00 0.00 64 1011.7
20260505064258 58 46 0.0 0.0 0.00 0.00 0.00 65 1011.8
20260505063756 57 31 0.0 0.0 0.00 0.00 0.00 65 1011.8
20260505063252 58 58 0.0 0.0 0.00 0.00 0.00 64 1011.9
20260505062749 58 126 2.0 3.0 0.00 0.00 0.00 62 1011.9
20260505062246 59 65 0.0 0.0 0.00 0.00 0.00 63 1011.9
20260505061743 59 42 1.0 2.0 0.00 0.00 0.00 63 1011.9
20260505061241 59 95 0.0 1.0 0.00 0.00 0.00 62 1012.1
20260505060738 59 74 0.0 0.0 0.00 0.00 0.00 63 1012.1
20260505060235 58 129 3.0 3.0 0.00 0.00 0.00 62 1012.1
20260505055730 59 69 0.0 0.0 0.00 0.00 0.00 62 1012.1
20260505055227 59 196 4.0 6.0 0.00 0.00 0.00 61 1012.1
20260505054724 59 43 0.0 1.0 0.00 0.00 0.00 60 1012.1
20260505054222 59 34 0.0 0.0 0.00 0.00 0.00 64 1012.2
20260505053720 59 39 2.0 3.0 0.00 0.00 0.00 61 1012.2
20260505053216 59 63 1.0 2.0 0.00 0.00 0.00 59 1012.2
20260505052714 59 194 3.0 6.0 0.00 0.00 0.00 59 1012.3
20260505052210 59 95 2.0 3.0 0.00 0.00 0.00 59 1012.1
20260505051707 59 77 0.0 1.0 0.00 0.00 0.00 61 1012.2
20260505051205 59 39 1.0 2.0 0.00 0.00 0.00 61 1012.1
20260505050703 59 117 0.0 0.0 0.00 0.00 0.00 60 1012.2
20260505050201 60 67 0.0 0.0 0.00 0.00 0.00 59 1012.3
20260505041631 59 56 0.0 0.0 0.00 0.00 0.00 61 1012.2
20260505041128 59 64 0.0 0.0 0.00 0.00 0.00 60 1012.3
20260505040625 59 57 0.0 0.0 0.00 0.00 0.00 62 1012.0
20260505040122 60 63 0.0 1.0 0.00 0.00 0.00 60 1011.9
20260505035618 60 58 0.0 0.0 0.00 0.00 0.00 59 1012.1
20260505035115 60 55 0.0 0.0 0.00 0.00 0.00 59 1012.0
20260505034612 60 45 0.0 0.0 0.00 0.00 0.00 59 1012.0
20260505034109 60 32 0.0 0.0 0.00 0.00 0.00 59 1012.1
20260505033605 60 58 0.0 0.0 0.00 0.00 0.00 60 1012.0
20260505033104 60 34 1.0 2.0 0.00 0.00 0.00 59 1011.9
20260505032601 60 64 0.0 0.0 0.00 0.00 0.00 60 1011.9
20260505032057 60 58 0.0 1.0 0.00 0.00 0.00 59 1012.1
20260505031555 60 24 0.0 0.0 0.00 0.00 0.00 59 1011.9
20260505031051 59 49 0.0 0.0 0.00 0.00 0.00 63 1012.1
20260505030548 58 201 0.0 2.0 0.00 0.00 0.00 64 1012.0
20260505030044 59 51 0.0 0.0 0.00 0.00 0.00 63 1012.1
20260505025540 58 54 0.0 0.0 0.00 0.00 0.00 63 1012.1
20260505025039 58 195 1.0 2.0 0.00 0.00 0.00 65 1012.0
20260505024535 58 46 0.0 0.0 0.00 0.00 0.00 63 1011.8
20260505024032 58 97 3.0 5.0 0.00 0.00 0.00 62 1012.1
20260505023529 58 64 0.0 0.0 0.00 0.00 0.00 62 1012.0
20260505023027 59 56 0.0 0.0 0.00 0.00 0.00 61 1011.7
20260505022525 59 205 1.0 2.0 0.00 0.00 0.00 60 1011.9
20260505022022 60 63 0.0 0.0 0.00 0.00 0.00 58 1012.1
20260505021518 60 57 0.0 0.0 0.00 0.00 0.00 56 1011.8
20260505021014 61 59 0.0 0.0 0.00 0.00 0.00 55 1012.1
20260505020509 61 102 3.0 3.0 0.00 0.00 0.00 53 1011.9
20260505020006 61 29 0.0 0.0 0.00 0.00 0.00 54 1011.8
20260505015503 62 37 0.0 0.0 0.00 0.00 0.00 54 1011.7
20260505015000 63 40 0.0 0.0 0.00 0.00 0.00 52 1011.9
20260505014457 63 41 0.0 0.0 0.00 0.00 0.00 51 1012.0
20260505013954 63 77 0.0 0.0 0.00 0.00 0.00 51 1011.9
20260505013451 63 61 0.0 1.0 0.00 0.00 0.00 50 1011.5
20260505012949 63 142 4.0 6.0 0.00 0.00 0.00 50 1011.7
20260505012447 62 29 0.0 1.0 0.00 0.00 0.00 52 1011.6
20260505011943 61 76 0.0 1.0 0.00 0.00 0.00 52 1011.5
20260505011439 61 50 0.0 0.0 0.00 0.00 0.00 54 1011.6
20260505010936 62 37 0.0 0.0 0.00 0.00 0.00 55 1011.3
20260505010432 61 43 0.0 1.0 0.00 0.00 0.00 53 1011.4
20260505005928 61 59 2.0 2.0 0.00 0.00 0.00 56 1011.3
20260505005425 61 44 0.0 0.0 0.00 0.00 0.00 55 1011.3
20260505004923 60 46 0.0 0.0 0.00 0.00 0.00 55 1011.1
20260505004419 60 58 0.0 0.0 0.00 0.00 0.00 57 1011.1
20260505003916 58 42 0.0 0.0 0.00 0.00 0.00 58 1011.2
20260505003413 59 57 0.0 0.0 0.00 0.00 0.00 60 1010.9
20260505002909 59 51 0.0 0.0 0.00 0.00 0.00 60 1011.1
20260505002406 59 60 0.0 0.0 0.00 0.00 0.00 63 1010.7
20260505001904 59 50 0.0 0.0 0.00 0.00 0.00 60 1010.7
20260505001401 59 63 0.0 0.0 0.00 0.00 0.00 63 1010.6
20260505000858 60 54 0.0 0.0 0.00 0.00 0.00 57 1010.6
20260505000358 62 51 0.0 0.0 0.00 0.00 0.00 54 1010.5
20260504235852 63 49 0.0 0.0 0.00 0.00 0.00 54 1010.5
20260504235350 63 31 0.0 0.0 0.00 0.00 0.00 49 1010.4
20260504234846 64 202 1.0 2.0 0.00 0.00 0.00 50 1010.7
20260504234344 65 49 0.0 0.0 0.00 0.00 0.00 50 1010.4
20260504233840 65 24 0.0 1.0 0.00 0.00 0.00 46 1010.4
20260504233336 65 49 0.0 0.0 0.00 0.00 0.00 47 1010.3
20260504232833 66 44 0.0 0.0 0.00 0.00 0.00 48 1010.4
20260504232330 66 50 3.0 6.0 0.00 0.00 0.00 45 1010.2
20260504231827 66 46 0.0 0.0 0.00 0.00 0.00 46 1010.3
20260504231323 66 55 0.0 0.0 0.00 0.00 0.00 47 1010.2
20260504230819 66 63 0.0 0.0 0.00 0.00 0.00 44 1010.3
20260504230318 66 39 0.0 0.0 0.00 0.00 0.00 45 1010.1
20260504225816 68 50 0.0 0.0 0.00 0.00 0.00 43 1010.1
20260504225312 68 47 0.0 0.0 0.00 0.00 0.00 44 1010.1
20260504224809 69 165 1.0 1.0 0.00 0.00 0.00 41 1010.0
20260504224306 69 58 1.0 2.0 0.00 0.00 0.00 38 1009.8
20260504223803 69 30 0.0 0.0 0.00 0.00 0.00 41 1009.7
20260504223258 69 353 0.0 0.0 0.00 0.00 0.00 39 1009.5
20260504222755 69 55 1.0 3.0 0.00 0.00 0.00 40 1009.6
20260504222252 70 187 3.0 6.0 0.00 0.00 0.00 39 1009.7
20260504221750 71 166 2.0 3.0 0.00 0.00 0.00 39 1009.8
20260504221247 71 16 0.0 0.0 0.00 0.00 0.00 37 1009.7
20260504220743 71 341 2.0 2.0 0.00 0.00 0.00 39 1009.8
20260504220240 71 25 0.0 2.0 0.00 0.00 0.00 37 1010.0
20260504215738 72 217 3.0 5.0 0.00 0.00 0.00 38 1010.0
20260504215234 72 32 0.0 0.0 0.00 0.00 0.00 39 1010.0
20260504214730 72 215 1.0 2.0 0.00 0.00 0.00 38 1010.2
20260504214227 72 61 0.0 0.0 0.00 0.00 0.00 40 1010.0
20260504213724 72 46 1.0 2.0 0.00 0.00 0.00 38 1010.0
20260504213220 73 12 4.0 7.0 0.00 0.00 0.00 34 1010.2
20260504212717 73 32 4.0 6.0 0.00 0.00 0.00 35 1010.2
20260504212214 73 342 0.0 0.0 0.00 0.00 0.00 39 1010.2
20260504211711 73 79 3.0 5.0 0.00 0.00 0.00 37 1010.1
20260504211207 73 103 3.0 3.0 0.00 0.00 0.00 39 1010.4
20260504210705 73 46 0.0 1.0 0.00 0.00 0.00 40 1010.4
20260504210201 73 284 0.0 1.0 0.00 0.00 0.00 37 1010.0
20260504205658 73 23 1.0 2.0 0.00 0.00 0.00 36 1010.2
20260504205155 71 166 0.0 0.0 0.00 0.00 0.00 43 1010.3
20260504204654 71 83 4.0 6.0 0.00 0.00 0.00 44 1010.2
20260504204153 72 65 0.0 0.0 0.00 0.00 0.00 43 1010.2
20260504203651 73 207 1.0 2.0 0.00 0.00 0.00 42 1010.5
20260504203149 72 354 1.0 2.0 0.00 0.00 0.00 37 1010.2
20260504202649 71 59 1.0 2.0 0.00 0.00 0.00 40 1010.4
20260504202146 72 150 3.0 6.0 0.00 0.00 0.00 36 1010.4
20260504201643 69 165 3.0 5.0 0.00 0.00 0.00 40 1010.4
20260504201141 69 52 0.0 0.0 0.00 0.00 0.00 44 1010.4
20260504200637 69 52 0.0 0.0 0.00 0.00 0.00 44 1010.7
20260504200134 69 22 1.0 1.0 0.00 0.00 0.00 39 1010.6
20260504195630 70 57 0.0 0.0 0.00 0.00 0.00 48 1010.6
20260504195126 69 25 0.0 0.0 0.00 0.00 0.00 41 1010.5
20260504194623 71 25 1.0 2.0 0.00 0.00 0.00 38 1010.7
20260504194119 73 67 3.0 6.0 0.00 0.00 0.00 37 1010.9
20260504193615 70 12 0.0 0.0 0.00 0.00 0.00 41 1010.6
20260504193114 69 56 3.0 3.0 0.00 0.00 0.00 42 1010.9
20260504192612 69 355 1.0 2.0 0.00 0.00 0.00 40 1010.8
20260504192110 69 346 2.0 3.0 0.00 0.00 0.00 40 1010.9
20260504191608 69 85 2.0 2.0 0.00 0.00 0.00 42 1010.9
20260504191104 69 65 0.0 0.0 0.00 0.00 0.00 42 1010.7
20260504190600 69 78 1.0 1.0 0.00 0.00 0.00 44 1010.9
20260504190056 71 25 0.0 0.0 0.00 0.00 0.00 43 1010.8
20260504185553 69 106 5.0 7.0 0.00 0.00 0.00 38 1011.0
20260504185050 69 123 5.0 8.0 0.00 0.00 0.00 38 1011.1
20260504184545 69 56 3.0 5.0 0.00 0.00 0.00 43 1011.1
20260504184041 73 6 0.0 1.0 0.00 0.00 0.00 37 1010.9
20260504183538 73 66 2.0 3.0 0.00 0.00 0.00 42 1011.1
20260504183036 74 45 1.0 1.0 0.00 0.00 0.00 47 1011.2
20260504182533 71 55 7.0 10.0 0.00 0.00 0.00 37 1011.2
20260504182030 71 67 0.0 2.0 0.00 0.00 0.00 38 1011.4
20260504181527 72 74 2.0 3.0 0.00 0.00 0.00 39 1011.3
20260504181026 73 232 2.0 6.0 0.00 0.00 0.00 43 1011.4
20260504180524 72 195 2.0 2.0 0.00 0.00 0.00 40 1011.4
20260504180023 71 26 6.0 7.0 0.00 0.00 0.00 39 1011.5
20260504175519 70 9 3.0 5.0 0.00 0.00 0.00 38 1011.3
20260504175016 71 7 7.0 8.0 0.00 0.00 0.00 36 1011.5
20260504174514 72 120 7.0 10.0 0.00 0.00 0.00 39 1011.6
20260504174011 69 352 0.0 0.0 0.00 0.00 0.00 42 1011.6
20260504173508 69 229 2.0 2.0 0.00 0.00 0.00 40 1011.8
20260504173005 69 332 4.0 6.0 0.00 0.00 0.00 42 1011.6
20260504172501 69 10 3.0 6.0 0.00 0.00 0.00 41 1011.7
20260504171957 69 38 3.0 3.0 0.00 0.00 0.00 40 1011.9
20260504171454 69 341 1.0 1.0 0.00 0.00 0.00 44 1011.8
20260504170951 71 74 3.0 6.0 0.00 0.00 0.00 43 1012.0
20260504170447 68 67 0.0 1.0 0.00 0.00 0.00 46 1011.9
20260504160407 67 203 1.0 2.0 0.00 0.00 0.00 46 1012.6